AO-07 1 07530U 74089B 20065.75036089 -.00000033 00000-0 74859-4 0 9998 2 07530 101.7870 36.1242 0012004 202.5897 278.5854 12.53642395 73233 UO-11 1 14781U 84021B 20064.51597165 .00000058 00000-0 13164-4 0 9999 2 14781 97.5962 81.6776 0008489 176.2164 183.9116 14.83146539937273 LO-19 1 20442U 90005G 20065.12256801 -.00000003 00000-0 15170-4 0 9996 2 20442 98.6806 12.0855 0012873 100.9903 259.2729 14.32946389573678 HUBBLE 1 20580U 90037B 20064.96152278 .00000442 00000-0 15905-4 0 9990 2 20580 28.4697 290.7668 0002783 47.8804 80.7233 15.09347548440256 MET-2/21 1 22782U 93055A 20065.68765878 -.00000016 00000-0 -27907-4 0 9999 2 22782 82.5496 315.9425 0022616 163.2934 225.9093 13.83824980338966 AO-27 1 22825U 93061C 20064.98415305 .00000005 00000-0 19870-4 0 9999 2 22825 98.9224 64.8109 0007805 327.5292 32.5409 14.30079242379153 IO-26 1 22826U 93061D 20064.71522715 .00000013 00000-0 23126-4 0 9993 2 22826 98.9164 64.4947 0008157 315.4005 44.6519 14.30414141379328 FO-29 1 24278U 96046B 20065.12820715 -.00000038 00000-0 78946-6 0 9999 2 24278 98.5688 188.6933 0349277 285.0948 71.1803 13.53096203163029 NOAA-15 1 25338U 98030A 20064.67355683 .00000025 00000-0 29067-4 0 9991 2 25338 98.7282 90.2012 0010083 201.9449 158.1300 14.25953339134295 GO-32 1 25397U 98043D 20065.71189759 -.00000019 00000-0 11080-4 0 9995 2 25397 98.7184 8.0558 0001727 39.4148 320.7156 14.23680399125015 ISS 1 25544U 98067A 20065.81774487 .00000664 00000-0 20117-4 0 9990 2 25544 51.6430 139.9293 0005385 351.3807 62.3625 15.49219708215991 NO-44 1 26931U 01043C 20064.71949010 -.00000036 00000-0 18035-4 0 9993 2 26931 67.0512 52.6696 0006369 264.1695 95.8680 14.30568855962160 SO-50 1 27607U 02058C 20064.72894651 -.00000039 00000-0 15224-4 0 9992 2 27607 064.5568 334.5567 0060875 203.7018 156.1279 14.75613090925270 CO-55 1 27844U 03031E 20065.03035672 .00000056 00000-0 45135-4 0 9994 2 27844 98.6845 74.3291 0009836 4.4976 355.6289 14.22224121865298 CO-57 1 27848U 03031J 20065.66009321 .00000043 00000-0 39451-4 0 9999 2 27848 98.6916 75.4954 0009931 14.7419 345.4047 14.21812916865227 RS-22 1 27939U 03042A 20065.70107012 .00000094 00000-0 25463-4 0 9997 2 27939 98.0707 202.0041 0011782 327.0637 32.9841 14.66840497878806 NOAA-18 1 28654U 05018A 20064.68082326 .00000052 00000-0 53029-4 0 9996 2 28654 99.0591 120.0618 0014734 163.0336 197.1330 14.12493000762215 CO-58 1 28895U 05043F 20065.37294385 .00000104 00000-0 28762-4 0 9992 2 28895 97.9912 204.7487 0015632 246.9044 113.0512 14.63742826765610 Falconsat-3 1 30776U 07006E 20064.75489163 .00002478 00000-0 67571-4 0 9992 2 30776 035.4340 229.6282 0003490 303.9402 056.0993 15.37303492720718 CO-65 1 32785U 08021C 20065.19955173 .00000206 00000-0 27790-4 0 9996 2 32785 97.5666 57.8432 0014417 116.1679 244.1023 14.88425822642432 AAUSAT2 1 32788U 08021F 20064.50537352 .00000809 00000-0 78965-4 0 9997 2 32788 97.4933 73.6675 0012978 53.4554 306.7859 14.94963029643730 DO-64 1 32789U 08021G 20065.13107003 .00001397 00000-0 95980-4 0 9993 2 32789 97.4325 111.5195 0010784 318.7310 41.3102 15.07496454646199 CO-66 1 32791U 08021J 20064.70881666 .00000183 00000-0 23813-4 0 9990 2 32791 097.5373 063.5111 0014925 091.6574 268.6355 14.90983698642776 RS-30 1 32953U 08025A 20065.73397340 .00000037 00000-0 19437-3 0 9993 2 32953 82.5087 342.4204 0018256 282.5245 77.3797 12.43094629534746 PRISM 1 33493U 09002B 20064.78000638 .00000711 00000-0 67361-4 0 9993 2 33493 098.1371 000.7937 0016407 045.9947 314.2623 14.96930361604042 NOAA-19 1 33591U 09005A 20064.67749779 -.00000002 00000-0 24557-4 0 9993 2 33591 99.1960 67.2965 0014176 13.7235 346.4318 14.12397574570602 TISAT-1 1 36799U 10035E 20064.43257011 .00000190 00000-0 25223-4 0 9996 2 36799 98.1824 230.7327 0011267 318.7005 41.3360 14.91283141523475 JUGNU 1 37839U 11058B 20065.04453209 .00000309 00000-0 23084-4 0 9998 2 37839 19.9603 195.9405 0018962 317.6925 198.4724 14.12673237434116 SRMSAT 1 37841U 11058D 20064.89805207 .00000328 00000-0 34960-4 0 9998 2 37841 19.9712 258.9946 0011827 175.1245 321.7774 14.10651477433479 AO-71 1 37854U 11061E 20065.07239720 .00001251 00000-0 70672-4 0 9994 2 37854 101.7103 102.4647 0158982 12.2420 348.2586 15.07040558456208 HRBE 1 37855U 11061F 20064.55169591 .00001456 00000-0 79512-4 0 9994 2 37855 101.7243 098.8771 0171664 026.2940 334.6862 15.06053767455417 ALMASAT-1 1 38078U 12006B 20065.78886304 .00143977 11918-4 31696-3 0 9995 2 38078 69.4154 226.6417 0078517 211.0589 281.4599 15.92458786438580 HORYU-2 1 38340U 12025D 20065.20674973 .00000126 00000-0 26357-4 0 9995 2 38340 98.2956 116.1378 0011718 20.3527 339.8146 14.75816191419587 RS-40 1 38735U 12041C 20065.74435773 -.00000014 00000-0 -17573-3 0 9990 2 38735 82.4724 65.3258 0017508 31.9032 328.3104 12.42579229344974 BEESAT-3 1 39135U 13015F 20064.56313263 .00000796 00000-0 48078-4 0 9995 2 39135 64.8669 280.1239 0045050 262.8874 96.7129 15.17970921379687 BEESAT-2 1 39136U 13015G 20065.02949166 .00000557 00000-0 37535-4 0 9996 2 39136 64.8668 283.2500 0029375 279.4667 80.3139 15.17358895379666 ZACUBE-1 1 39417U 13066B 20064.72710063 .00000177 00000-0 28624-4 0 9999 2 39417 97.5637 68.5886 0057363 261.1121 98.3595 14.81230221339538 TRITON-1 1 39427U 13066M 20064.71350349 .00000274 00000-0 51322-4 0 9995 2 39427 97.7126 31.5402 0114924 53.5982 307.5758 14.67953227336482 GOMX-1 1 39430U 13066Q 20065.79479535 .00000134 00000-0 33093-4 0 9997 2 39430 97.7802 10.6476 0151674 150.6777 210.3056 14.59354076334680 LO-74 1 39440U 13066AA 20064.68240417 .00000199 00000-0 34777-4 0 9991 2 39440 097.6225 053.0262 0079220 321.3480 038.2076 14.75967481337126 AO-73 1 39444U 13066AE 20064.51468229 .00000216 00000-0 32962-4 0 9994 2 39444 97.5593 70.5545 0056497 254.3305 105.1671 14.82072756338415 SPROUT 1 39770U 14029E 20065.83765635 .00000412 00000-0 51337-4 0 9998 2 39770 97.8891 172.6238 0008015 314.5662 45.4886 14.87632792313652 DUCHIFAT-1 1 40021U 14033M 20064.77967057 .00000239 00000-0 30111-4 0 9992 2 40021 97.9374 355.4169 0011433 273.8772 86.1139 14.90826612310291 NANOSATCBR1 1 40024U 14033Q 20065.28182462 .00000344 00000-0 41578-4 0 9997 2 40024 97.9239 352.6283 0010792 276.8302 83.1688 14.90007924310247 EO-79 1 40025U 14033R 20064.76448867 .00000180 00000-0 25107-4 0 9992 2 40025 097.9130 349.1088 0011041 286.2689 073.7313 14.89080436309518 DTUSAT-2 1 40030U 14033W 20064.76538313 .00000177 00000-0 24962-4 0 9998 2 40030 97.9023 346.7964 0010468 281.9060 78.0982 14.88663503309946 EO-80 1 40032U 14033Y 20064.51173688 .00000216 00000-0 29186-4 0 9990 2 40032 097.9031 346.5451 0010427 283.7114 076.2941 14.88610076309370 ANTELSAT 1 40034U 14033AA 20064.60570158 .00000172 00000-0 32841-4 0 9998 2 40034 097.7283 285.2367 0058194 338.8217 021.0583 14.74213218306439 VELOX-1 1 40057U 14034E 20065.84170492 .00000229 00000-0 39534-4 0 9997 2 40057 98.2615 200.0710 0012366 115.4518 244.7972 14.77811985306333 DAURIA DX 1 1 40071U 14037C 20065.83320001 .00000082 00000-0 17985-4 0 9991 2 40071 98.4510 238.5344 0009765 106.3689 253.8599 14.81338701305915 UKUBE-1 1 40074U 14037F 20065.74946656 .00000213 00000-0 32672-4 0 9990 2 40074 98.4514 247.9115 0005414 93.5765 266.6069 14.84204584306370 HODOYOSHI-1 1 40299U 14070B 20065.84897006 .00000482 00000-0 22809-4 0 9990 2 40299 97.3291 144.9625 0012547 193.2142 260.5759 15.23949852296031 CHUBUSAT-1 1 40300U 14070C 20065.76654206 .00000577 00000-0 27864-4 0 9998 2 40300 97.2979 137.9790 0018881 214.7463 260.5544 15.22381845295732 QSAT-EOS 1 40301U 14070D 20065.83477271 .00001499 00000-0 59476-4 0 9990 2 40301 97.3008 142.6225 0025101 191.1365 235.8129 15.26631353296129 FIREBIRD FU3 1 40377U 15003B 20065.11212007 .00001778 00000-0 72532-4 0 9993 2 40377 99.1091 103.9222 0123752 302.6885 56.2458 15.19685648281467 FIREBIRD FU4 1 40378U 15003C 20065.22911006 .00001782 00000-0 72604-4 0 9996 2 40378 99.1093 104.1554 0123929 302.1718 56.7539 15.19702082281486 GRIFEX 1 40379U 15003D 20065.08276256 .00001408 00000-0 63175-4 0 9990 2 40379 99.1160 96.4873 0132859 325.8151 33.4574 15.16142509281035 NO-84 1 40654U 15025D 20064.53021950 .00010555 00000-0 13480-3 0 8689 2 40654 54.9885 63.6230 0119489 276.2298 82.5133 15.51848698152722 AO-85 1 40967U 15058D 20064.49748109 -.00000026 00000-0 16417-4 0 9698 2 40967 64.7743 89.4756 0172126 113.7700 248.1562 14.76077859146087 DEORBITSAIL 1 40719U 15032E 20065.30555997 .00000311 00000-0 51350-4 0 9991 2 40719 97.8830 316.4426 0016071 179.7795 180.3426 14.76924940250720 NUDT-PHONESAT 1 40900U 15049B 20065.83751947 .00001952 00000-0 84156-4 0 9994 2 40900 97.4352 77.6987 0012270 356.9584 85.1656 15.23698874247413 XW-2A 1 40903U 15049E 20065.73839819 .00001772 00000-0 42525-4 0 9995 2 40903 97.3033 114.5554 0011269 280.3725 175.3454 15.42701409250485 XW-2C 1 40906U 15049H 20065.82369536 .00000466 00000-0 27722-4 0 9993 2 40906 97.4763 68.7168 0015357 20.7164 101.0458 15.15950926246558 XW-2D 1 40907U 15049J 20065.82517313 .00000425 00000-0 25422-4 0 9992 2 40907 97.4740 68.4105 0014597 17.9498 61.8054 15.16167939246577 LILACSAT-2 1 40908U 15049K 20065.74695079 .00000337 00000-0 22175-4 0 9994 2 40908 97.4893 66.8291 0016624 26.3252 76.7854 15.13968810246308 XW-2E 1 40909U 15049L 20065.74550159 .00000939 00000-0 49127-4 0 9998 2 40909 97.4641 71.6338 0013750 11.5879 73.7255 15.18232353246790 XW-2F 1 40910U 15049M 20065.73393264 .00001015 00000-0 53516-4 0 9994 2 40910 97.4678 70.7355 0014932 9.4219 105.3424 15.17744029246605 XW-2B 1 40911U 15049N 20065.74335641 .00000713 00000-0 40436-4 0 9992 2 40911 97.4762 69.0187 0014573 19.1209 89.4111 15.16097165246451 DCBB 1 40912U 15049P 20065.74787451 .00001011 00000-0 49897-4 0 9995 2 40912 97.4512 74.7820 0014269 348.3585 65.9712 15.20111970246966 TW-1C 1 40926U 15051B 20065.66170384 .00016307 00000-0 18802-3 0 9990 2 40926 97.0994 116.9566 0008694 115.3926 5.2115 15.61972766250808 TW-1A 1 40928U 15051D 20065.79414677 .00002365 00000-0 57229-4 0 9998 2 40928 97.1212 96.1220 0010176 193.4664 276.4718 15.42059661249396 IO-86 1 40931U 15052B 20064.72643270 .00000562 00000-0 -10961-4 0 9998 2 40931 6.0023 2.2923 0013420 237.8306 122.0531 14.76626752239753 LQSat 1 40958U 15057A 20064.71828821 -.00000013 00000-0 55468-5 0 9991 2 40958 097.8660 131.4368 0019349 124.3687 235.9355 14.73109847237094 AO-85 1 40967U 15058D 20064.49748109 -.00000026 00000-0 16417-4 0 9698 2 40967 64.7743 89.4756 0172126 113.7700 248.1562 14.76077859146087 ATHENOXAT-1 1 41168U 15077C 20064.50280491 .00001814 00000-0 59700-4 0 9990 2 41168 14.9880 111.3253 0011476 107.1553 253.0025 15.14147250233419 ChubuSat-2 1 41338U 16012B 20064.97967903 .00000325 00000-0 18485-4 0 9991 2 41338 31.0031 290.4923 0013720 162.4812 197.6298 15.00252596222031 ChubuSat-3 1 41339U 16012C 20065.85070775 .00000276 00000-0 14630-4 0 9995 2 41339 31.0123 282.7196 0013363 179.5121 180.5569 15.00420650222169 Horyu-4 1 41340U 16012D 20064.72758568 .00000447 00000-0 27075-4 0 9992 2 41340 31.0048 278.6867 0014000 190.4698 169.5648 15.01430498222129 OUFTI-1 1 41458U 16025C 20065.81588874 .00002991 00000-0 15315-3 0 9997 2 41458 98.0963 170.9972 0164074 198.2304 161.2970 15.06523297211878 e-st@r-II 1 41459U 16025D 20065.83214136 .00002749 00000-0 14190-3 0 9998 2 41459 98.0943 170.5081 0165987 199.9431 159.5276 15.06107892211842 AAUSAT4 1 41460U 16025E 20065.85832834 .00002090 00000-0 10630-3 0 9997 2 41460 98.0896 172.5122 0155017 189.8540 169.9634 15.08273083212023 LO-87 1 41557U 16033B 20065.31366939 .00001174 00000-0 45905-4 0 9998 2 41557 97.4047 156.2390 0015282 96.3981 263.8999 15.27778348209879 NuSat2 1 41558U 16033C 20065.34776229 .00001289 00000-0 47269-4 0 9991 2 41558 97.4090 158.1960 0014313 94.7241 265.5634 15.29733914209975 Lapan A3 1 41603U 16040E 20065.84517712 -.00000031 00000-0 16805-5 0 9993 2 41603 97.3242 122.5513 0012685 197.8313 275.5606 15.19802155205405 Swayam 1 41607U 16040J 20064.61262980 .00001312 00000-0 57065-4 0 9999 2 41607 097.3315 126.3996 0012971 189.2467 170.8534 15.23941563205454 Pratham 1 41783U 16059A 20065.10734583 .00000036 00000-0 16317-4 0 9999 2 41783 98.0315 123.4266 0032243 285.2643 74.4996 14.63040099183624 AlSat 1N 1 41789U 16059G 20065.69305631 .00000053 00000-0 18989-4 0 9993 2 41789 98.0336 126.5748 0026763 271.0790 88.7336 14.64300253183840 ScatSat 1 41790U 16059H 20065.67699137 -.00000009 00000-0 86311-5 0 9997 2 41790 98.1754 108.9777 0004371 234.8693 125.2091 14.50902397182175 TY-1 1 41844U 16066D 20065.81759551 .00000829 00000-0 36365-4 0 9990 2 41844 97.4057 75.1476 0014926 356.5844 128.5322 15.24678958184474 Pegasus-1 1 41846U 16066F 20064.41201127 .00000233 00000-0 45677-4 0 9993 2 41846 098.6774 113.2956 0367162 185.7702 173.9199 14.37712134173876 CAS-2T 1 41847U 16066G 20064.42218255 .00000049 00000-0 17783-4 0 9997 2 41847 098.6702 113.8019 0365850 181.6914 178.3064 14.38044535174321 EO-88 1 42017U 17008BX 20065.18106784 .00001412 00000-0 57390-4 0 9994 2 42017 97.3717 134.2251 0005496 345.8083 14.3000 15.26194203169640 nSIGHT1 1 42726U 98067MF 20065.33117045 .00125231 17036-4 37374-3 0 9990 2 42726 51.6285 40.9537 0005429 99.4581 260.7039 15.92178182158997 CAS-4B 1 42759U 17034B 20065.82477509 .00000059 00000-0 17079-4 0 9999 2 42759 43.0161 236.3968 0009806 97.6136 34.5887 15.09755246150304 CAS-4A 1 42761U 17034D 20065.78642361 .00000043 00000-0 16112-4 0 9997 2 42761 43.0169 235.9737 0010327 98.0333 99.2636 15.09833120150294 UCLSat 1 42765U 17036A 20065.11315685 .00001174 00000-0 52365-4 0 9992 2 42765 97.3156 122.0907 0012331 40.8438 319.3721 15.23284528150108 NIUSat 1 42766U 17036B 20065.36893896 .00000851 00000-0 40708-4 0 9994 2 42766 97.3152 120.0925 0016251 31.5552 328.6655 15.21531451149860 LituanicaSAT 2 1 42768U 17036D 20065.18780044 .00001927 00000-0 83050-4 0 9998 2 42768 97.3207 121.9895 0015390 29.8486 330.3626 15.23668338149964 Aalto 1 1 42775U 17036L 20065.16476366 .00000725 00000-0 34970-4 0 9995 2 42775 97.3136 120.2444 0014658 32.3947 327.8186 15.21685957149812 URSA MAIOR 1 42776U 17036M 20065.16604225 .00000788 00000-0 37594-4 0 9997 2 42776 97.3147 120.4869 0014477 32.2769 327.9350 15.21851930149829 Max Valier Sat 1 42778U 17036P 20065.36945461 .00000821 00000-0 38418-4 0 9995 2 42778 97.3196 121.8151 0013040 35.8100 324.4008 15.22431354149891 Pegasus 1 42784U 17036V 20065.24900307 .00001038 00000-0 47024-4 0 9993 2 42784 97.3161 121.9531 0012901 40.8793 319.3409 15.22989777149910 NUDATSat 1 42787U 17036Y 20065.78566429 .00001507 00000-0 64647-4 0 9999 2 42787 97.3209 123.6431 0013055 31.4166 328.7846 15.24192179149907 SUCHAI 1 1 42788U 17036Z 20065.63781312 .00001214 00000-0 53719-4 0 9997 2 42788 97.3150 122.8267 0012407 36.8195 323.3929 15.23496902150075 SKCUBE 1 42789U 17036AA 20064.42569438 .00001078 00000-0 48228-4 0 9994 2 42789 097.3166 121.5291 0012347 042.8296 317.3901 15.23354582149807 VZLUSAT 1 1 42790U 17036AB 20064.39525351 .00001466 00000-0 62975-4 0 9994 2 42790 097.3187 122.2815 0011815 041.5537 318.6597 15.24176412149849 VENTA 1 1 42791U 17036AC 20064.26757715 .00001052 00000-0 47133-4 0 9992 2 42791 097.3164 121.4221 0012049 043.9611 316.2582 15.23346442149777 Robusta 1B 1 42792U 17036AD 20064.58935396 .00001152 00000-0 51050-4 0 9995 2 42792 097.3166 121.9080 0011937 042.9921 317.2247 15.23539557149855 D-SAT 1 42794U 17036AF 20065.30403286 .00000343 00000-0 35129-4 0 9996 2 42794 97.5074 103.0421 0126007 353.3384 6.6154 14.91229329147170 TechnoSat 1 42829U 17042E 20065.26715527 .00000012 00000-0 65698-5 0 9999 2 42829 97.5353 311.8467 0012645 272.8036 87.1735 14.91063100143762 QIKCOM-1 1 42983U 98067NF 20065.35141806 .00003741 00000-0 50367-4 0 9997 2 42983 51.6386 109.9527 0004336 30.9458 329.1790 15.60682397134023 AO-91 1 43017U 17073E 20065.32874204 .00000781 00000-0 65719-4 0 9994 2 43017 97.7262 341.5669 0258169 29.8714 331.6950 14.78820623123774 EcAMSat 1 43019U 98067NG 20065.32565704 .00007813 00000-0 84968-4 0 9990 2 43019 51.6402 99.3513 0004562 18.8400 341.2763 15.64526070216488 PICSAT 1 43132U 18004X 20064.67412660 .00001185 00000-0 51606-4 0 9997 2 43132 097.4579 136.6227 0011067 066.8091 293.4311 15.24152725119095 AO-92 1 43137U 18004AC 20064.62859260 .00000873 00000-0 39088-4 0 9991 2 43137 97.4567 136.4588 0010695 68.5905 291.6472 15.23916383119077 TianYi 2 1 43155U 18008A 20065.81453424 .00000829 00000-0 52575-4 0 9996 2 43155 97.4573 137.5040 0018795 141.2882 329.4023 15.11484637117261 Zhou Enlai 1 43156U 18008B 20065.81299610 .00000958 00000-0 60998-4 0 9993 2 43156 97.4620 137.3613 0016134 139.1271 330.8160 15.11013628117224 TianYi 6 1 43158U 18008D 20065.86592292 .00000996 00000-0 64016-4 0 9999 2 43158 97.4587 136.6003 0015039 138.5733 332.7220 15.10564709117185 S-Net G 1 43186U 18014G 20064.49184667 .00000701 00000-0 66298-4 0 9996 2 43186 097.7004 334.0017 0010187 208.3921 151.6747 14.96760040113992 S-Net H 1 43187U 18014H 20064.69222096 .00000707 00000-0 66814-4 0 9998 2 43187 097.7002 334.1804 0010200 207.6211 152.4470 14.96760262114029 S-Net J 1 43188U 18014J 20065.29374661 .00000731 00000-0 68924-4 0 9993 2 43188 97.7005 334.7984 0010216 205.4188 154.6532 14.96760693114115 S-Net K 1 43189U 18014K 20065.29412956 .00000733 00000-0 69152-4 0 9990 2 43189 97.7002 334.7690 0010206 205.2408 154.8316 14.96760429112666 FMN 1 1 43192U 18015A 20065.88654541 .00001957 00000-0 80563-4 0 9996 2 43192 97.4261 196.0137 0017758 94.9983 21.1188 15.25203371116117 Shaonian Xing 1 43199U 18015H 20065.82988851 .00001443 00000-0 59623-4 0 9994 2 43199 97.4035 194.4956 0018702 104.6245 18.4323 15.25470241116161 1KUNS-PF 1 43466U 98067NP 20065.46869377 .00060561 00000-0 29032-3 0 9993 2 43466 51.6354 78.6108 0003199 63.6329 88.0776 15.82124309103948 UBAKUSAT 1 43467U 98067NQ 20065.61706083 .00020203 00000-0 16675-3 0 9993 2 43467 51.6370 94.1432 0002233 24.0462 60.2424 15.70313499103766 Irazu 1 43468U 98067NR 20064.05830872 .04406624 12104-4 93033-3 0 9999 2 43468 051.6208 066.1424 0002119 143.1577 216.9592 16.30099382203979 EnduroSat One 1 43551U 98067NZ 20064.49495530 .00027123 00000-0 19925-3 0 9993 2 43551 51.6340 100.3122 0005843 50.8215 309.3302 15.72882943 93819 EQUISat 1 43552U 98067PA 20064.51336752 .00018420 00000-0 15984-3 0 9998 2 43552 051.6365 105.7819 0006025 047.9392 312.2116 15.69152576093707 UiTMSat 1 1 43589U 98067PD 20064.48371337 .00021210 00000-0 17322-3 0 9991 2 43589 51.6329 105.4452 0005517 53.8201 306.3306 15.70521178 89448 Maya 1 1 43590U 98067PE 20064.34954757 .00021079 00000-0 17218-3 0 9998 2 43590 51.6335 106.0577 0005827 51.5976 308.5544 15.70519404 89357 Bhutan 1 1 43591U 98067PF 20064.52033252 .00023495 00000-0 19060-3 0 9998 2 43591 51.6340 104.9998 0005704 54.6675 305.4855 15.70610044 89388 SiriusSat 1 1 43595U 98067PG 20065.32695032 .00025121 00000-0 21747-3 0 9994 2 43595 51.6336 104.3486 0003862 28.9392 331.1818 15.68998310 88641 SiriusSat 2 1 43596U 98067PH 20064.68122265 .00019670 00000-0 17229-3 0 9998 2 43596 51.6346 108.3506 0004249 24.9116 335.2085 15.68880289 88534 Tanusha-3 1 43597U 98067PJ 20065.35403016 .00041926 00000-0 28930-3 0 9990 2 43597 51.6322 97.6900 0004458 41.8934 318.2406 15.74128093 88730 SurfSat 1 43614U 18070B 20065.36536145 .00002544 00000-0 66553-4 0 9994 2 43614 93.0283 111.5643 0016509 29.4110 330.8069 15.38685856 82479 CP-7 DAVE 1 43615U 18070C 20064.54233566 .00002317 00000-0 60847-4 0 9993 2 43615 93.0286 111.2193 0016778 31.6841 328.5419 15.38562843 82343 ELFIN-B 1 43616U 18070D 20065.18672384 .00003344 00000-0 84581-4 0 9992 2 43616 93.0247 111.4022 0017245 31.5990 328.6296 15.39683809 82473 ELFIN-A 1 43617U 18070E 20064.71114542 .00003646 00000-0 91827-4 0 9994 2 43617 093.0302 111.6297 0016515 030.5409 329.6804 15.39819982082407 STARS-Me Mother 1 43640U 98067PQ 20064.54269262 .00009414 00000-0 10684-3 0 9995 2 43640 051.6354 119.4504 0005137 002.1939 357.9077 15.63125555080304 CubeBel 1 1 43666U 18083E 20065.83778836 .00000841 00000-0 44562-4 0 9996 2 43666 97.5005 93.2800 0014986 8.6766 164.8751 15.18053582 74894 Changshagaoxin 1 43669U 18083H 20065.34030497 .00000718 00000-0 39563-4 0 9997 2 43669 97.4874 91.2957 0010834 4.8249 355.3087 15.17136399 74743 Ten-Koh 1 43677U 18084G 20064.54474815 .00000178 00000-0 24159-4 0 9999 2 43677 97.8694 181.9505 0016993 141.0633 219.1811 14.90252712 73317 PO-101 1 43678U 18084H 20065.76485905 .00000420 00000-0 47546-4 0 9992 2 43678 97.8691 184.2651 0010635 152.2645 207.9159 14.91612593 73562 IRVINE 01 1 43693U 18088D 20064.66982468 .00001928 00000-0 81489-4 0 9995 2 43693 085.0374 146.3558 0016035 322.3828 037.6292 15.22415446072900 QO-100 1 43700U 18090A 20064.55327094 .00000141 00000-0 00000-0 0 9995 2 43700 000.0138 134.8223 0002247 231.8705 021.0290 01.00272060004659 Reaktor Hello World 1 43743U 18096AA 20065.80167735 .00001118 00000-0 44571-4 0 9991 2 43743 97.4302 140.1695 0019582 131.1893 348.6995 15.27160917 70577 MinXSS-2 1 43758U 18099A 20065.16371360 .00000402 00000-0 41304-4 0 9996 2 43758 97.7167 138.7633 0015886 172.3449 187.8017 14.95590547 68369 AO-95 1 43770U 18099N 20065.15988311 .00000439 00000-0 45399-4 0 9997 2 43770 97.7163 138.3128 0014672 179.2903 180.8341 14.94922220 68333 RANGE-B 1 43772U 18099Q 20065.32645837 .00000211 00000-0 24447-4 0 9990 2 43772 97.7222 138.8714 0014662 166.7663 193.3945 14.95085664 68354 RANGE-A 1 43773U 18099R 20065.28351491 .00000568 00000-0 57249-4 0 9997 2 43773 97.7106 138.1528 0014036 165.9744 194.1869 14.94917589 68340 MOVE-II 1 43780U 18099Y 20065.20319481 .00000601 00000-0 59714-4 0 9997 2 43780 97.7158 138.5015 0013914 176.9354 183.1954 14.95293806 68335 SNUSat 2 1 43782U 18099AA 20064.67155699 .00000483 00000-0 49131-4 0 9998 2 43782 097.7157 138.0063 0013233 167.6343 192.5206 14.95192076068266 SnugLite 1 43784U 18099AC 20064.44578539 -.00000198 00000-0 -12719-4 0 9994 2 43784 97.7125 137.6407 0015240 177.1373 182.9937 14.95285064 68241 ITASat 1 1 43786U 18099AE 20065.31460785 -.00000213 00000-0 -14098-4 0 9996 2 43786 97.7176 138.8099 0015409 173.3529 186.7899 14.95269592 68378 EAGLET 1 1 43790U 18099AJ 20065.13240160 .00000263 00000-0 28828-4 0 9993 2 43790 97.7163 138.8386 0013723 178.1795 181.9478 14.95647048 68054 ESEO 1 43792U 18099AL 20065.20311049 .00000233 00000-0 26205-4 0 9992 2 43792 97.7138 138.7810 0013535 174.4439 185.6935 14.95570874 68123 CSIM 1 43793U 18099AM 20064.47357528 .00000665 00000-0 64457-4 0 9993 2 43793 97.7126 137.9907 0013601 174.2093 185.9288 14.95937821 67994 Astrocast 0.1 1 43798U 18099AS 20065.33441823 .00000210 00000-0 23988-4 0 9996 2 43798 97.7154 139.1168 0013178 157.5660 202.6140 14.95824230 68383 JO-97 1 43803U 18099AX 20065.34097113 .00000605 00000-0 59847-4 0 9994 2 43803 97.7135 138.6806 0015527 173.5233 186.6191 14.95430968 68373 Suomi 100 1 43804U 18099AY 20065.14038971 .00000586 00000-0 58138-4 0 9990 2 43804 97.7133 138.4755 0015575 174.3757 185.7641 14.95422955 68351 Al Farabi 2 1 43805U 18099AZ 20065.39003529 .00000074 00000-0 11874-4 0 9997 2 43805 97.7138 138.7785 0015558 173.9394 186.2018 14.95524994 68390 PWSat 2 1 43814U 18099BJ 20065.50046281 .00018295 00000-0 12007-2 0 9993 2 43814 97.7831 144.5381 0012710 165.9076 194.2595 15.07641488 68034 CHOMPTT 1 43855U 18104G 20065.74789954 .00001044 00000-0 42676-4 0 9993 2 43855 85.0348 243.7879 0019883 74.4968 285.8515 15.22787563 67746 ISAT 1 43879U 18111D 20065.37020092 .00000553 00000-0 54201-4 0 9998 2 43879 97.7089 334.4437 0011739 228.3562 131.6655 14.96168442 62910 UWE-4 1 43880U 18111E 20064.69834583 .00000744 00000-0 70694-4 0 9998 2 43880 097.7099 333.9981 0010923 231.0736 128.9513 14.96402260064822 Sparrow 1 43881U 18111F 20065.28636196 .00000702 00000-0 66922-4 0 9998 2 43881 97.7099 334.6330 0011291 227.2318 132.7954 14.96454223 62917 Lume 1 1 43908U 18111AJ 20065.30530373 .00000926 00000-0 39885-4 0 9997 2 43908 97.2750 328.2618 0022200 147.3698 212.8917 15.24823517 66156 FO-98 1 43933U 19003B 20065.86514839 .00000569 00000-0 27844-4 0 9991 2 43933 97.2453 119.4940 0016127 243.8565 231.5673 15.21961874 62775 FO-99 1 43937U 19003F 20065.85473780 .00001039 00000-0 45315-4 0 9999 2 43937 97.2412 120.4395 0022679 227.9446 242.7000 15.24130268 62855 Delphini 1 1 44030U 98067PW 20064.57154633 .00013438 00000-0 15336-3 0 9997 2 44030 51.6354 125.6544 0004882 40.3974 319.7382 15.62543973 62098 MYSat 1 1 44045U 18092F 20065.25082728 .00002685 00000-0 85900-4 0 9991 2 44045 051.6445 188.0366 0010823 306.8878 053.1117 15.36123393059277 AstroCast 0.2 1 44083U 19018F 20065.19775741 .00000898 00000-0 42981-4 0 9995 2 44083 97.4341 127.6204 0013724 170.5742 266.6750 15.21462205 51527 AISTechSat 3 1 44103U 19018AB 20065.76921904 .00000654 00000-0 30759-4 0 9995 2 44103 97.4214 128.2903 0013469 183.5662 302.4677 15.22994188 51655 AISat 1 1 44104U 19018AC 20064.59463814 .00000794 00000-0 28063-4 0 9997 2 44104 097.4757 133.5589 0057337 224.0197 135.6471 15.30869998051762 Raavana-1 1 44329U 98067QE 20064.56767374 .00007809 00000-0 11769-3 0 9990 2 44329 051.6395 139.2017 0006651 335.8896 024.1783 15.55811268040669 Uguisu 1 44330U 98067QF 20064.57541553 .00007707 00000-0 11650-3 0 9998 2 44330 51.6395 139.2506 0006569 334.4213 25.6453 15.55750961 40640 NepaliSat-1 1 44331U 98067QG 20064.49778884 .00007414 00000-0 11198-3 0 9991 2 44331 51.6395 139.4848 0006677 336.6966 23.3722 15.55839467 40644 Prox-1 1 44339U 19036A 20065.62602507 .00000774 00000-0 13428-3 0 9992 2 44339 24.0046 45.1298 0011705 99.2618 260.9221 14.52865227 37014 Oculus-ASR 1 44348U 19036K 20065.17429245 .00006366 00000-0 92908-4 0 9992 2 44348 28.5224 346.2684 0375677 276.8362 78.9633 15.00450973 38113 Armadillo 1 44352U 19036P 20065.15124135 .00009284 00000-0 13795-3 0 9993 2 44352 028.5366 344.4121 0367013 279.3380 076.5898 15.02263833038086 NO-104 1 44354U 19036R 20064.17607391 .00006469 00000-0 93283-4 0 9999 2 44354 28.5349 351.0267 0372627 268.2630 87.5254 15.01334537 37969 NO-103 1 44355U 19036S 20065.09880353 .00015670 00000-0 22741-3 0 9997 2 44355 28.5348 340.9788 0358611 284.6181 71.4914 15.04833444 38144 CP9 1 44360U 19036X 20065.40670206 .00022936 -60621-5 27084-3 0 9991 2 44360 28.5214 331.2830 0349202 300.7429 55.9187 15.09784796 38143 Move-IIb 1 44398U 19038N 20064.54035084 .00000922 00000-0 56925-4 0 9994 2 44398 097.5237 027.2072 0026575 126.4915 233.8769 15.12082309036723 SONATE 1 44400U 19038Q 20064.68596904 .00000406 00000-0 27397-4 0 9994 2 44400 97.5265 27.3696 0026590 124.6378 235.7365 15.11847106 36749 BeeSat 9 1 44412U 19038AC 20064.39083413 .00000738 00000-0 46356-4 0 9995 2 44412 97.5256 27.1311 0024029 130.5987 229.7339 15.12115789 36392 JAISAT-1 1 44419U 19038F 20064.70925128 .00000822 00000-0 50552-4 0 9992 2 44419 097.5257 027.6299 0022936 128.8619 231.4663 15.12598494036766 LightSail-2 1 44420U 19036AC 20065.15589771 .00005692 00000-0 12533-2 0 9997 2 44420 24.0117 46.3543 0022373 90.9393 269.3599 14.54660717 35109 Taurus 1 1 44530U 19059C 20065.76062766 .00001138 00000-0 33625-3 0 9998 2 44530 98.5730 145.8530 0017388 112.3668 247.9367 14.45307948 25369 MO-106 1 44830U 19084G 20065.30319164 .00040403 00000-0 33540-3 0 9990 2 44830 96.9928 294.0689 0033773 275.8696 83.8717 15.69307220 14079 TRSI-Sat 1 44831U 19084H 20064.40972866 .00028749 00000-0 24013-3 0 9999 2 44831 96.9935 293.1907 0033825 278.4721 81.2708 15.69216418 13942 MO-105 1 44832U 19084J 20064.26933382 .00029597 00000-0 24311-3 0 9997 2 44832 96.9936 293.0747 0033246 278.7616 80.9883 15.69640097 13919 Duchifat 3 1 44854U 19089C 20065.84965941 .00000345 00000-0 34350-4 0 9992 2 44854 36.9698 350.5944 0009489 302.8046 57.1834 14.98986048 12740 OPS-SAT 1 44878U 19092F 20065.43570353 -.00000066 00000-0 00000 0 0 9997 2 44878 97.4659 250.4951 0013225 3.5118 356.6308 15.15287938 11787 FloripaSat 1 1 44885U 19093G 20065.75277943 .00000175 00000-0 28827-4 0 9992 2 44885 97.9655 142.5234 0015429 31.2058 329.0053 14.81977335 11342 SwampSat-2 1 45115U 19071E 20065.38425725 .00008345 00000-0 26604-3 0 9994 2 45115 51.6417 146.0887 0013520 43.4218 316.7826 15.33306761 5147 HuskySat-1 1 45119U 19071J 20064.73007907 .00001100 00000-0 45369-4 0 9996 2 45119 51.6440 149.2209 0012703 38.7677 321.4214 15.33186283 5057 QARMAN 1 45257U 98067RA 20064.51161639 .00003945 00000-0 77136-4 0 9996 2 45257 51.6421 146.3227 0008483 336.9317 23.1290 15.49973238 2228 AztechSat-1 1 45258U 98067RB 20064.51180095 .00003200 00000-0 64182-4 0 9995 2 45258 51.6417 146.3232 0006268 319.1979 40.8540 15.49932726 2193 /EX
